Location: Hradec Kralove
(50.2170°N, 15.8330°E)
Time: 10:33:23
(UTC+01:00)

ISS - Pass Details

Date: 26 February 2026
Orbit: 416 x 426 km, 51.6° (Epoch: 9 March)

Event Time Altitude Azimuth Distance (km) Brightness Sun altitude
Exits shadow 05:07:15 42° 291° (WNW) 606 -3.4 -16.7°
Maximum altitude 05:08:15 80° 13° (NNE) 429 -3.8 -16.5°
Drops below altitude 10° 05:11:36 10° 100° (E) 1,492 0.3 -16.0°
Sets 05:13:41 0° 101° (E) 2,353 1.6 -15.6°
